[[{"header":{"parameterUnit":"m.s-1","parameterCategory":1,"la1":30.2992,"la2":30.254,"lo1":-89.0895,"lo2":-89.0443,"dy":0.0025,"dx":0.0025,"nx":19,"ny":19,"refTime":"2026-05-01T03:00:00:Z","depth":0,"parameterNumber":2,"parameterNumberName":"U-component_of_WINDS"},"data":[0,0,0,-1.8209,-1.8211,-1.8275,-1.8275,-1.8373,-1.8374,0,0,0,0,0,0,0,0,0,0,0,-1.8201,-1.8202,-1.8209,-1.8211,-1.8275,-1.8275,-1.8372,-1.8374,0,0,0,0,0,0,0,0,0,0,0,-1.82,-1.8201,-1.8203,-1.8212,-1.8275,-1.8275,-1.8372,-1.8318,0,0,0,0,0,0,0,0,0,0,-1.8254,-1.8255,-1.8201,-1.8203,-1.8212,-1.8275,-1.8275,-1.8315,-1.8322,-1.8351,0,-1.8379,0,-1.8378,-1.8381,-1.8382,0,0,0,-1.8204,-1.825,-1.8258,-1.8203,-1.8213,-1.8275,-1.8244,-1.8319,-1.8326,-1.8359,-1.8381,-1.8384,-1.838,-1.8382,-1.8383,-1.8576,-1.8577,0,0,-1.82,-1.8218,-1.8254,-1.8263,-1.8255,-1.8242,-1.8246,-1.8323,-1.8347,-1.8381,-1.8386,-1.8381,-1.8383,-1.8384,-1.8575,-1.8576,0,0,0,-1.8195,-1.8215,-1.8221,-1.826,-1.827,-1.8244,-1.8249,-1.8344,-1.8344,-1.8387,-1.8383,-1.8383,-1.8385,-1.8573,-1.8575,-1.8656,0,0,0,-1.8193,-1.8212,-1.822,-1.8231,-1.8269,-1.8308,-1.8269,-1.8339,-1.8347,-1.8382,-1.8383,-1.8386,-1.8572,-1.8574,-1.8651,-1.8693,0,0,0,-1.8193,-1.8212,-1.8225,-1.8232,-1.826,-1.8306,-1.8311,-1.834,-1.8345,-1.8382,-1.8386,-1.8571,-1.8574,-1.8647,-1.8685,-1.8751,0,0,0,-1.8198,-1.8295,-1.8227,-1.8333,-1.826,-1.8355,-1.831,-1.838,-1.8421,-1.8384,-1.8572,-1.8575,-1.8645,-1.868,-1.8746,-1.8811,-1.8839,0,0,-1.833,-1.8312,-1.8373,-1.8313,-1.8426,-1.8344,-1.8468,-1.8489,-1.8475,-1.8543,-1.8548,-1.8653,-1.8684,-1.875,-1.8985,-1.9008,0,0,0,-1.842,-1.8465,-1.8491,-1.8531,-1.8549,-1.8568,-1.8567,-1.8575,-1.8631,-1.8514,-1.8692,-1.871,-1.8748,-1.8778,-1.8798,-1.883,-1.8589,-1.8589,-1.8589,-1.8634,-1.8612,-1.8712,-1.8698,-1.8737,-1.8736,-1.8766,-1.8775,-1.8741,-1.8783,-1.8805,-1.8951,-1.8987,-1.9001,-1.9035,-1.8835,-1.8835,-1.8835,-1.8835,-1.8828,-1.8889,-1.884,-1.8921,-1.8897,-1.8963,-1.8965,-1.8938,-1.8998,-1.8933,-1.8965,-1.8899,-1.9027,-1.9055,-1.8841,-1.884,-1.884,-1.8839,-1.8839,-1.8968,-1.8994,-1.9,-1.9056,-1.9101,-1.9082,-1.9141,-1.9116,-1.9093,-1.9124,-1.9145,-1.9144,-1.9141,-1.9135,-1.9136,-1.9136,-1.9137,-1.9137,-1.9137,-1.9113,-1.9117,-1.9171,-1.9197,-1.922,-1.9246,-1.9244,-1.9265,-1.9283,-1.926,-1.926,-1.9223,-1.9042,-1.8999,-1.9145,-1.9144,-1.9143,-1.9142,-1.9141,-1.9323,-1.9271,-1.9354,-1.9376,-1.9405,-1.9452,-1.9418,-1.9464,-1.9477,-1.9507,-1.9462,-1.9332,-1.9311,-1.9296,-1.926,-1.9465,-1.9465,-1.9465,-1.9465,-1.9444,-1.943,-1.9509,-1.9547,-1.958,-1.9558,-1.9653,-1.9651,-1.9642,-1.9649,-1.9614,-1.9564,-1.9549,-1.9537,-1.9517,-1.9483,-1.974,-1.9741,-1.9741,-1.9573,-1.9561,-1.9647,-1.9637,-1.9658,-1.9676,-1.9764,-1.9809,-1.9787,-1.9752,-1.9654,-1.9643,-1.956,-1.9534,-1.9501,-1.9469,-1.9407,0,0]},{"header":{"parameterUnit":"m.s-1","parameterCategory":1,"la1":30.2992,"la2":30.254,"lo1":-89.0895,"lo2":-89.0443,"dy":0.0025,"dx":0.0025,"nx":19,"ny":19,"refTime":"2026-05-01T03:00:00:Z","depth":0,"parameterNumber":3,"parameterNumberName":"V-component_of_WINDS"},"data":[0,0,0,-9.9121,-9.9126,-9.9332,-9.9333,-9.9625,-9.9628,0,0,0,0,0,0,0,0,0,0,0,-9.9081,-9.9083,-9.912,-9.9126,-9.9332,-9.9333,-9.9625,-9.9628,0,0,0,0,0,0,0,0,0,0,0,-9.9079,-9.9083,-9.9086,-9.9127,-9.9332,-9.9333,-9.9624,-9.9457,0,0,0,0,0,0,0,0,0,0,-9.9251,-9.9236,-9.9082,-9.9086,-9.9128,-9.9332,-9.9333,-9.9449,-9.9468,-9.9545,0,-9.9623,0,-9.9631,-9.965,-9.9651,0,0,0,-9.9109,-9.922,-9.9258,-9.9087,-9.913,-9.9332,-9.9234,-9.9459,-9.948,-9.9571,-9.9627,-9.9637,-9.9636,-9.9652,-9.9654,-10.0168,-10.0171,0,0,-9.9098,-9.9128,-9.9243,-9.9273,-9.9247,-9.9228,-9.9241,-9.9471,-9.9533,-9.9628,-9.9643,-9.9641,-9.9654,-9.9657,-10.0165,-10.0169,0,0,0,-9.9076,-9.9121,-9.9151,-9.9262,-9.9297,-9.9234,-9.9249,-9.9523,-9.9531,-9.9646,-9.9644,-9.9656,-9.966,-10.0161,-10.0166,-10.0357,0,0,0,-9.9069,-9.9108,-9.9147,-9.9168,-9.9293,-9.9413,-9.9297,-9.9515,-9.954,-9.9643,-9.9656,-9.9663,-10.0158,-10.0164,-10.0344,-10.0442,0,0,0,-9.906,-9.9107,-9.9144,-9.9169,-9.9259,-9.9409,-9.9429,-9.9519,-9.954,-9.9651,-9.9664,-10.0155,-10.0163,-10.0333,-10.0423,-10.0588,0,0,0,-9.9058,-9.9307,-9.9148,-9.9426,-9.9258,-9.9526,-9.9427,-9.9624,-9.9743,-9.9658,-10.0158,-10.0166,-10.0329,-10.0411,-10.0576,-10.0734,-10.0803,0,0,-9.9389,-9.9348,-9.9509,-9.9373,-9.9678,-9.9492,-9.9824,-9.9901,-9.9881,-10.0072,-10.0084,-10.0348,-10.0421,-10.0585,-10.1173,-10.1228,0,0,0,-9.9625,-9.9741,-9.9815,-9.9932,-10.0,-10.0066,-10.009,-10.0119,-10.0281,-9.9987,-10.045,-10.0493,-10.0588,-10.0662,-10.0709,-10.0789,-10.0201,-10.02,-10.0199,-10.0137,-10.0103,-10.0367,-10.0359,-10.0473,-10.0497,-10.0585,-10.0627,-10.0555,-10.0665,-10.0722,-10.1084,-10.1172,-10.1207,-10.1291,-10.0801,-10.0802,-10.0803,-10.0803,-10.0622,-10.0782,-10.0685,-10.0907,-10.0868,-10.1052,-10.1084,-10.1028,-10.1192,-10.1037,-10.1119,-10.0954,-10.1268,-10.1339,-10.0817,-10.0815,-10.0813,-10.0812,-10.0811,-10.0955,-10.1026,-10.106,-10.1227,-10.1358,-10.1338,-10.1503,-10.1459,-10.1418,-10.1499,-10.1556,-10.1553,-10.1546,-10.1529,-10.1531,-10.1532,-10.1533,-10.1534,-10.1535,-10.1289,-10.1321,-10.1467,-10.1563,-10.1633,-10.1719,-10.1746,-10.1813,-10.1875,-10.183,-10.183,-10.1749,-10.1305,-10.1196,-10.1554,-10.1551,-10.1548,-10.1546,-10.1545,-10.1796,-10.1675,-10.1902,-10.1973,-10.2082,-10.2216,-10.2159,-10.2299,-10.2347,-10.243,-10.2331,-10.2009,-10.1963,-10.1925,-10.1835,-10.2337,-10.2337,-10.2337,-10.2337,-10.208,-10.2053,-10.2276,-10.2393,-10.2501,-10.2474,-10.2729,-10.2752,-10.2756,-10.2783,-10.2703,-10.2579,-10.2542,-10.2517,-10.2467,-10.2382,-10.3012,-10.3013,-10.3013,-10.2391,-10.2373,-10.26,-10.2607,-10.2689,-10.276,-10.2999,-10.3134,-10.3112,-10.304,-10.2804,-10.2776,-10.2573,-10.2509,-10.2433,-10.2356,-10.2199,0,0]}]]